Location: *
(48.8489°N, 2.3218°E)
Time: 18:10:47
(UTC+00:00)

Cosmos 372 Rocket - Pass Details

Date: 23 August 2019
Orbit: 738 x 768 km, 74.1° (Epoch: 13 October)

Event Time Altitude Azimuth Distance (km) Brightness Sun altitude
Exits shadow 21:39:10 53° 183° (S) 932 4.1 -23.0°
Maximum altitude 21:40:24 78° 111° (ESE) 781 3.8 -23.1°
Drops below altitude 10° 21:45:38 10° 25° (NNE) 2,309 6.8 -23.6°
Sets 21:48:02 0° 25° (NNE) 3,243 7.7 -23.8°
